Location: Asheville, NC
(35.6000°N, 82.5500°W)
Time: 22:52:09
(UTC-04:00)

Tiangong 1 - Pass Details

Date: 09 October 2017
Orbit: 293 x 320 km, 42.8° (Epoch: 20 October)

Event Time Altitude Azimuth Distance (km) Brightness Sun altitude
Rises 20:43:03 0° 296° (WNW) 2,029 6.0 -21.3°
Reaches altitude 10° 20:45:27 10° 318° (NW) 1,193 4.2 -21.7°
Enters shadow 20:46:18 14° 335° (NNW) 983 3.5 -21.9°
